Temperature
30 31 31 31 31 31 31 31 30 29 29 30 30 30 30 29 28 28 27 26 25 24 23 23 22 22 21 21 21 20 20 20 19 19 19 19 18 18 18 18 18 18 17 17
29 31 31 30 30 31 31 31 31 30 30 30 30 29 29 28 28 27 26 25 24 23 22 22 22 21 21 21 20 20 20 19 19 19 18 18 18 18 18 18 18 17 17 17
29 30 30 29 30 31 31 32 31 30 29 30 29 29 28 27 27 26 25 25 23 23 22 22 21 21 21 20 20 20 19 19 19 18 18 18 18 18 18 17 17 17 17 17
28 28 27 29 31 31 31 31 31 30 29 29 29 28 27 26 26 25 24 24 23 22 22 21 21 20 20 20 20 19 19 19 18 18 18 18 17 17 17 17 17 16 17 16
28 28 28 29 30 31 30 29 30 30 29 28 28 27 26 25 24 24 23 22 22 22 21 21 21 20 20 19 19 19 18 18 18 18 18 17 17 17 16 16 16 16 16 16
27 27 27 28 30 30 30 28 29 29 28 28 27 26 25 24 23 23 22 21 21 21 21 20 20 19 19 19 18 18 18 18 17 17 17 17 17 16 16 16 16 16 16 16
27 27 27 29 30 30 28 26 27 27 27 26 25 25 23 23 22 22 21 21 20 20 19 19 19 18 18 18 17 17 17 17 17 17 17 17 16 16 16 16 16 15 15 16
27 26 26 28 29 27 26 26 26 26 25 25 24 23 22 22 21 21 20 20 19 19 18 18 18 18 17 17 17 16 16 16 16 16 16 16 16 16 16 16 15 15 15 15
26 26 26 26 26 26 26 25 25 25 24 24 23 23 22 21 20 20 19 19 19 18 18 17 17 17 17 16 16 16 16 16 16 16 16 15 15 15 15 15 15 15 15 15
25 26 26 25 25 25 25 24 24 23 23 23 22 22 21 20 19 19 18 18 18 17 17 17 16 16 16 16 16 16 16 16 16 15 15 15 15 15 15 15 15 15 14 15
25 25 25 24 24 24 24 23 23 23 22 22 21 20 19 19 18 18 18 18 17 17 17 16 16 15 15 15 15 15 15 15 15 15 15 15 15 15 15 15 14 14 14 14
24 24 24 23 23 23 23 23 22 22 21 21 20 19 19 18 18 17 17 17 16 16 16 16 15 15 15 15 15 15 15 15 15 15 15 15 15 15 15 14 14 14 14 14
23 23 23 23 22 22 22 22 21 21 20 20 19 19 18 18 17 17 17 16 16 16 15 15 15 15 14 14 14 14 14 14 14 14 15 15 15 14 14 14 14 14 14 14
22 22 21 21 22 21 21 21 20 20 20 19 19 18 18 17 17 16 16 16 16 15 15 15 15 14 14 14 14 14 14 14 14 14 14 14 14 14 14 14 14 14 14 13
21 21 21 21 21 21 21 20 20 19 19 18 18 17 17 17 16 16 16 15 15 15 15 14 14 14 14 14 14 14 14 14 14 14 14 14 14 14 14 13 13 13 13 13
20 20 20 20 20 20 20 20 19 19 18 18 17 17 17 16 16 15 15 15 15 14 14 14 14 13 13 13 13 13 14 14 14 14 14 14 13 13 13 13 13 13 13 13
20 20 20 20 19 19 19 19 19 18 18 17 17 16 16 16 15 15 15 14 14 14 14 13 13 13 13 13 13 13 13 13 13 13 13 13 13 13 13 13 12 12 12 12
19 19 19 19 19 18 18 18 18 17 17 17 16 16 16 15 15 15 14 14 14 14 13 13 13 13 13 13 13 13 13 13 13 13 13 13 13 13 12 12 12 12 12 12
18 18 18 18 18 17 17 17 17 17 16 16 16 16 15 15 15 14 14 14 14 13 13 13 13 13 13 13 12 12 13 13 13 13 13 13 12 12 12 12 12 12 12 11
17 17 17 17 17 17 17 16 16 16 16 16 15 15 15 14 14 14 14 13 13 13 13 13 13 12 12 12 12 12 12 12 12 12 12 12 12 12 12 12 12 11 11 11
17 17 17 16 16 16 16 16 16 15 15 15 15 15 14 14 14 14 13 13 13 13 13 13 12 12 12 12 12 12 12 12 12 12 12 12 12 11 11 11 11 11 11 10
16 16 16 16 16 15 15 15 15 15 15 15 14 14 14 14 14 13 13 13 12 12 12 12 12 12 12 12 12 12 12 12 12 12 12 11 11 11 11 11 11 10 10 10
15 15 15 15 15 15 14 14 14 14 14 14 14 14 14 13 13 13 13 12 12 12 12 12 12 12 11 11 11 11 11 11 11 11 11 11 11 11 11 10 10 10 10 9
14 14 14 14 14 14 14 14 14 14 13 13 13 13 13 13 13 13 12 12 12 12 11 11 11 11 11 11 11 11 11 11 11 11 11 11 11 10 10 10 10 10 9 9
14 14 14 14 14 14 14 14 13 13 13 13 13 13 12 12 12 12 12 11 11 11 11 11 11 10 10 10 10 10 10 10 10 10 10 10 10 10 10 9 9 9 9 9
14 14 14 14 14 14 14 14 13 13 13 13 12 12 12 12 12 11 11 11 11 11 10 10 10 10 10 10 10 10 10 10 10 9 9 9 9 9 9 9 9 8 8 8
14 14 14 14 14 14 14 13 13 13 13 12 12 12 11 11 11 11 11 11 11 10 10 10 10 10 10 10 10 10 10 9 9 9 9 9 9 9 8 8 8 8 7 7
Wind_Speed
10 9 8 7 9 10 9 6 6 5 5 4 5 5 5 6 7 6 6 6 7 6 5 4 4 3 3 2 2 2 2 1 1 1 1 1 1 1 1 2 2 2 3 2
12 11 8 8 9 10 9 7 7 3 4 5 4 5 5 6 7 6 5 5 6 6 5 3 3 2 2 2 2 3 2 1 1 1 1 1 1 1 1 2 2 2 2 2
12 11 9 9 9 9 8 7 5 3 2 5 5 5 4 5 5 5 5 5 5 5 3 2 2 2 2 2 2 2 1 0 1 1 2 2 2 1 2 2 2 2 2 2
9 9 10 6 6 6 6 2 0 2 2 2 5 7 6 6 5 5 5 5 4 2 2 2 2 2 1 2 2 1 1 0 0 0 1 1 1 1 1 1 1 2 3 3
9 11 9 7 6 5 3 1 2 2 2 3 6 7 7 7 6 5 6 5 4 3 2 3 3 2 2 1 2 1 1 0 1 1 1 1 1 1 1 1 2 2 3 3
10 10 8 5 3 2 3 2 2 4 4 4 3 3 4 6 6 6 6 5 4 4 4 4 4 3 2 1 2 2 1 2 2 2 2 1 1 1 2 2 2 2 2 3
13 10 6 4 2 2 4 2 4 5 4 5 5 4 5 5 6 5 5 5 5 4 4 4 4 4 2 3 3 2 2 2 2 2 2 1 1 1 1 2 2 2 3 3
9 9 5 3 2 1 4 4 5 5 5 5 6 7 6 5 5 4 4 4 5 5 5 5 5 4 4 4 3 3 2 2 2 2 2 2 1 1 1 1 2 2 3 2
3 1 3 4 5 5 6 5 4 4 5 5 5 6 6 6 5 4 4 4 4 5 5 5 5 5 4 4 3 3 2 2 2 1 1 1 0 1 2 2 2 2 1 2
2 3 3 3 5 5 5 5 4 4 4 4 5 6 6 6 5 3 3 4 4 4 4 5 5 5 5 4 3 2 2 2 1 0 0 1 1 1 1 2 2 2 2 2
2 3 3 3 3 5 5 4 4 4 4 4 5 5 6 5 4 3 3 4 4 4 4 4 5 5 5 5 4 3 3 2 2 1 1 1 1 1 1 1 1 2 2 2
1 1 1 2 3 3 4 3 3 3 4 3 3 4 5 5 4 4 4 4 4 4 4 4 4 5 5 4 4 4 3 3 3 3 2 1 1 1 4 2 2 2 2 1
2 1 0 3 3 2 3 3 3 3 3 3 3 3 5 5 5 4 4 4 4 3 3 4 4 4 4 4 4 4 4 3 3 3 3 2 2 1 1 2 2 2 1 0
4 3 2 1 2 3 3 3 3 3 3 3 3 3 4 5 5 4 4 3 3 3 3 3 4 4 4 3 3 3 4 3 2 3 3 3 2 2 2 2 2 1 1 1
2 1 1 1 1 2 3 3 3 3 4 4 4 4 4 5 5 4 3 3 3 3 3 3 3 4 4 4 3 3 3 3 3 3 3 3 2 2 2 2 2 2 2 1
0 1 3 3 2 2 2 3 3 3 4 4 3 3 4 4 4 4 3 3 2 2 2 3 3 3 3 4 4 3 2 2 3 3 3 2 2 2 2 2 2 2 3 2
1 1 2 3 3 2 2 2 3 3 3 3 3 3 3 3 3 3 2 2 2 2 2 2 3 3 3 4 4 4 3 2 2 3 3 3 3 3 3 3 3 3 3 3
1 1 1 2 2 2 2 2 2 3 2 2 3 3 2 2 2 2 1 1 1 1 2 2 2 2 3 4 4 4 3 3 2 2 3 2 3 2 2 2 3 3 2 2
2 2 1 2 2 2 1 1 2 2 2 2 2 1 2 2 2 2 1 1 0 0 0 1 2 2 3 3 4 3 4 3 3 2 2 2 2 3 2 3 3 2 2 2
2 2 2 2 2 2 1 2 1 1 2 2 2 1 1 1 2 1 1 1 1 1 1 2 1 2 3 3 4 4 4 4 3 3 3 3 3 2 2 3 3 3 3 3
2 2 2 2 1 1 2 2 2 2 1 1 1 1 1 1 2 1 1 1 1 2 0 0 0 2 3 4 5 4 4 4 3 3 3 3 3 3 3 3 3 3 3 3
2 2 2 2 2 1 1 1 1 1 1 1 1 0 1 1 1 1 0 0 1 1 1 1 1 3 4 5 4 4 4 4 4 3 3 3 3 3 3 3 3 3 3 3
2 1 1 2 2 2 2 1 1 1 1 1 1 1 1 1 1 1 1 1 1 1 1 1 2 2 4 4 4 4 5 4 4 3 3 2 2 2 2 3 3 3 3 3
1 0 0 1 1 1 1 1 1 1 1 1 1 1 0 0 0 1 1 3 2 1 1 1 1 1 3 3 4 4 4 4 4 4 4 3 3 2 2 3 3 3 3 3
1 1 2 1 2 2 2 1 2 1 2 1 1 2 1 0 0 1 2 2 2 1 0 0 2 3 3 3 3 3 3 3 4 4 4 4 4 3 3 3 4 4 4 4
1 1 1 2 1 1 1 2 1 1 1 1 1 2 1 1 1 1 1 1 1 1 2 1 1 2 3 3 3 3 3 2 3 3 3 4 4 4 4 4 5 4 4 5
2 1 1 1 1 1 1 1 1 1 1 1 1 1 1 0 0 0 1 1 1 1 2 2 2 2 2 3 2 2 2 2 2 3 3 3 3 3 4 4 4 4 4 5
Wind_Direction
261 265 270 273 271 257 259 251 250 214 184 174 150 125 111 117 120 115 108 100 93 89 95 109 112 100 101 75 81 94 101 107 123 152 182 212 227 244 246 248 249 237 247 251
264 259 259 251 259 266 259 250 246 220 182 159 127 110 112 118 118 111 99 93 93 88 87 92 105 118 112 94 82 83 84 86 115 156 194 227 232 237 243 243 248 242 248 259
261 259 254 248 250 244 249 253 245 223 169 145 123 112 116 114 113 113 107 96 96 99 93 95 104 96 111 114 98 104 106 108 152 189 204 227 239 216 234 242 253 262 258 247
262 266 253 261 282 261 239 234 304 155 149 123 127 120 111 102 104 103 98 89 84 85 95 76 90 98 112 119 105 123 119 130 268 231 237 251 241 243 258 279 278 270 266 259
251 250 238 242 255 264 247 137 37 91 111 115 115 114 99 83 84 91 88 77 61 44 46 44 52 68 55 89 88 76 34 350 327 314 307 299 288 299 294 278 277 270 269 266
245 254 250 246 246 277 243 207 41 69 76 83 95 126 105 96 91 85 82 74 59 41 42 42 39 48 46 51 56 42 14 19 13 4 353 323 323 327 317 295 273 270 268 271
245 247 243 281 312 264 233 117 53 72 73 72 70 85 98 91 95 89 83 75 68 57 52 42 40 45 43 44 33 29 27 35 29 20 4 358 18 18 323 291 284 277 266 257
248 247 238 330 328 49 81 76 61 67 73 81 93 98 98 94 90 83 80 70 66 62 53 48 48 52 42 30 23 26 26 25 19 11 341 12 30 335 304 285 273 271 274 274
235 220 73 54 75 87 92 82 73 67 76 91 96 98 101 94 76 57 63 67 64 65 62 54 47 43 43 30 22 26 29 20 13 9 356 333 258 276 279 280 286 302 309 322
171 137 96 83 84 82 83 88 78 73 84 102 101 102 104 99 89 68 54 62 65 67 57 48 42 44 39 30 22 27 27 13 7 2 304 321 293 285 308 336 327 321 325 324
182 150 115 82 80 93 87 86 87 81 69 73 77 99 109 105 102 94 80 71 67 69 63 52 45 41 35 30 24 24 22 359 342 336 327 348 29 348 321 12 329 308 318 328
198 134 186 114 102 99 99 95 98 97 89 84 97 109 112 111 105 91 84 78 73 68 61 54 47 41 34 27 20 14 12 0 347 343 353 350 35 41 37 40 58 55 50 59
60 115 115 115 118 112 112 112 99 94 105 109 105 108 112 107 102 95 87 81 74 64 56 54 47 38 31 24 18 3 349 346 331 333 340 343 351 9 19 27 35 40 43 37
54 65 72 70 110 109 110 107 100 100 93 90 102 104 111 105 99 92 86 83 80 73 61 50 43 34 20 12 4 347 329 328 325 328 334 336 344 343 346 2 7 352 310 261
41 83 133 98 45 113 130 131 121 111 98 91 100 112 110 106 101 89 77 78 80 73 59 48 42 27 8 350 344 334 326 330 333 326 320 325 341 338 346 1 1 353 343 320
302 162 146 145 155 157 155 139 121 108 101 97 95 94 100 101 99 95 86 83 83 57 41 35 35 20 358 343 336 323 321 324 309 307 312 328 328 331 348 358 2 355 346 352
239 205 166 161 159 150 138 120 115 116 120 122 113 96 103 115 115 106 101 95 74 67 55 46 31 16 352 339 330 321 321 329 301 301 322 331 335 349 352 347 343 349 0 17
191 145 154 160 147 120 104 104 115 122 133 136 130 136 139 144 141 123 116 100 80 70 55 37 24 1 338 341 334 328 323 320 313 312 326 335 342 335 328 326 329 338 343 5
76 84 91 87 93 107 121 125 125 118 124 131 137 150 149 144 137 134 122 110 234 307 23 47 31 325 323 349 338 315 310 310 319 324 324 322 302 310 319 320 326 338 348 1
112 127 122 119 125 137 137 127 119 133 141 149 175 174 141 145 138 132 134 184 254 315 39 41 4 335 338 341 324 308 309 313 327 341 332 314 316 327 333 341 349 350 351 349
126 128 127 132 147 145 141 150 162 176 168 169 174 158 146 162 158 169 219 234 93 70 44 125 332 340 333 327 301 302 315 323 326 327 329 333 336 338 337 342 346 350 351 353
105 122 140 154 146 130 135 148 148 140 139 145 210 190 175 195 177 176 175 80 91 72 283 281 8 25 346 324 304 306 309 311 313 318 324 322 315 318 328 337 340 338 342 347
85 97 125 135 127 123 127 137 126 120 199 203 214 209 225 235 227 214 202 112 114 120 299 6 50 23 338 315 309 306 308 312 313 312 309 310 315 324 327 327 330 333 337 337
99 103 165 134 126 153 169 180 150 151 176 180 162 126 101 119 90 43 80 102 80 68 1 67 90 322 311 310 314 319 324 323 322 326 332 342 345 342 343 339 331 330 335 335
152 176 171 172 195 177 172 165 150 154 168 151 125 104 85 63 90 88 82 80 75 27 311 203 227 261 283 304 313 323 329 347 351 350 348 342 334 339 356 354 353 350 349 347
206 211 174 203 190 172 180 169 164 158 173 129 82 67 53 31 63 101 115 129 153 214 260 266 247 252 275 294 309 317 332 352 343 330 335 334 337 344 354 356 349 346 345 348
195 179 185 192 158 150 129 133 135 123 105 102 116 125 154 88 124 167 202 219 203 234 261 256 253 267 281 294 303 315 326 330 328 329 333 335 338 339 344 349 351 352 354 353
Height
1460 1456 1455 1457 1458 1456 1459 1463 1472 1472 1472 1469 1467 1469 1473 1476 1480 1484 1487 1490 1492 1495 1497 1499 1500 1501 1501 1502 1502 1502 1503 1503 1503 1503 1503 1503 1503 1502 1502 1502 1503 1503 1503 1503
1465 1458 1456 1460 1459 1457 1457 1458 1461 1463 1467 1464 1467 1470 1474 1478 1481 1485 1488 1491 1493 1495 1497 1498 1499 1500 1500 1500 1501 1501 1501 1501 1501 1501 1501 1501 1500 1500 1500 1500 1500 1501 1501 1501
1469 1459 1462 1469 1458 1456 1457 1452 1456 1466 1466 1464 1468 1472 1476 1479 1483 1486 1489 1491 1493 1495 1496 1497 1498 1498 1498 1499 1499 1499 1499 1500 1500 1500 1499 1499 1499 1498 1498 1498 1498 1498 1498 1498
1468 1469 1483 1464 1448 1449 1452 1453 1454 1458 1461 1464 1468 1473 1477 1481 1484 1487 1489 1492 1494 1495 1496 1496 1497 1497 1497 1497 1498 1498 1498 1498 1498 1498 1498 1497 1497 1497 1496 1496 1496 1496 1496 1496
1471 1475 1471 1460 1452 1450 1456 1460 1457 1460 1463 1467 1469 1474 1479 1483 1486 1488 1490 1492 1494 1495 1495 1496 1496 1496 1496 1496 1496 1496 1496 1496 1496 1496 1496 1495 1495 1495 1494 1494 1494 1494 1494 1494
1469 1478 1480 1465 1451 1451 1457 1467 1461 1463 1465 1469 1471 1476 1483 1485 1487 1489 1491 1493 1494 1494 1495 1495 1495 1495 1495 1494 1494 1494 1494 1494 1494 1494 1494 1493 1493 1493 1492 1492 1492 1491 1491 1491
1468 1471 1469 1457 1452 1454 1469 1473 1466 1468 1470 1472 1476 1480 1484 1486 1488 1490 1492 1493 1493 1494 1494 1494 1494 1494 1492 1492 1493 1493 1493 1492 1492 1492 1492 1492 1491 1491 1491 1490 1490 1489 1489 1489
1465 1472 1474 1458 1456 1462 1468 1467 1469 1471 1474 1475 1479 1481 1484 1487 1489 1490 1492 1493 1493 1493 1493 1493 1493 1492 1492 1492 1492 1491 1491 1491 1491 1491 1491 1491 1490 1489 1489 1488 1488 1488 1487 1486
1464 1468 1464 1462 1463 1466 1468 1470 1472 1474 1476 1478 1480 1483 1485 1488 1489 1490 1492 1492 1493 1493 1493 1493 1493 1492 1491 1491 1491 1490 1490 1489 1489 1489 1489 1489 1489 1488 1487 1487 1487 1486 1485 1485
1461 1462 1463 1465 1467 1469 1471 1472 1474 1476 1478 1479 1481 1483 1485 1488 1490 1491 1491 1492 1493 1493 1493 1493 1493 1492 1492 1491 1490 1489 1489 1489 1488 1488 1488 1488 1487 1487 1486 1485 1485 1485 1484 1483
1462 1464 1465 1467 1469 1471 1472 1474 1476 1478 1479 1481 1482 1484 1486 1487 1489 1490 1492 1492 1492 1493 1493 1493 1493 1492 1492 1490 1490 1489 1488 1488 1488 1488 1487 1487 1486 1486 1485 1484 1484 1483 1482 1480
1465 1466 1467 1469 1470 1472 1474 1475 1477 1479 1480 1482 1483 1484 1486 1487 1489 1490 1491 1491 1492 1492 1493 1493 1492 1492 1491 1490 1490 1489 1488 1488 1488 1488 1487 1486 1485 1484 1484 1483 1482 1481 1480 1479
1466 1467 1469 1470 1472 1474 1475 1476 1478 1480 1481 1483 1484 1485 1486 1487 1489 1490 1491 1491 1492 1492 1493 1492 1492 1491 1491 1490 1489 1488 1488 1487 1487 1487 1486 1485 1485 1483 1482 1481 1480 1479 1479 1478
1468 1469 1471 1472 1473 1474 1476 1477 1479 1481 1482 1483 1484 1485 1486 1487 1489 1490 1491 1491 1492 1492 1492 1492 1492 1491 1490 1490 1489 1488 1487 1487 1487 1486 1485 1484 1483 1483 1481 1480 1479 1477 1477 1476
1470 1470 1472 1473 1474 1476 1477 1479 1480 1481 1482 1484 1484 1485 1486 1487 1489 1490 1491 1492 1492 1492 1492 1492 1491 1491 1490 1489 1488 1487 1487 1486 1485 1485 1484 1483 1482 1482 1481 1479 1478 1477 1475 1474
1471 1471 1472 1473 1476 1477 1478 1480 1481 1482 1483 1484 1485 1486 1486 1487 1489 1490 1491 1492 1492 1492 1491 1491 1490 1489 1488 1488 1487 1486 1485 1485 1484 1483 1483 1482 1482 1481 1480 1478 1477 1476 1474 1473
1471 1472 1473 1473 1475 1477 1479 1480 1481 1483 1484 1485 1486 1487 1488 1488 1489 1490 1491 1491 1491 1491 1491 1490 1489 1488 1487 1487 1486 1485 1485 1484 1483 1482 1482 1481 1480 1479 1478 1477 1476 1475 1474 1472
1472 1473 1474 1475 1476 1478 1479 1481 1482 1483 1484 1485 1486 1487 1487 1488 1489 1489 1490 1490 1491 1490 1490 1489 1488 1488 1487 1486 1485 1484 1484 1483 1482 1481 1480 1479 1479 1478 1477 1476 1475 1474 1473 1472
1472 1473 1474 1475 1477 1478 1480 1481 1482 1483 1484 1485 1486 1486 1487 1487 1488 1488 1489 1489 1489 1489 1488 1488 1487 1486 1486 1485 1484 1483 1483 1482 1481 1480 1479 1478 1477 1477 1476 1475 1474 1473 1472 1471
1472 1473 1474 1476 1477 1478 1479 1481 1481 1482 1483 1484 1485 1485 1485 1486 1486 1487 1487 1487 1487 1487 1487 1486 1486 1485 1485 1484 1483 1482 1481 1480 1479 1478 1477 1476 1476 1475 1475 1474 1473 1472 1471 1470
1472 1473 1474 1475 1477 1478 1479 1479 1480 1481 1482 1483 1484 1484 1484 1485 1485 1485 1486 1486 1485 1485 1485 1485 1484 1484 1483 1482 1482 1481 1480 1479 1478 1477 1476 1475 1474 1474 1473 1472 1471 1471 1470 1468
1472 1473 1474 1475 1476 1477 1478 1479 1480 1480 1481 1481 1482 1482 1482 1483 1484 1484 1484 1484 1483 1483 1483 1483 1482 1482 1481 1481 1480 1480 1479 1478 1477 1476 1474 1473 1473 1473 1472 1471 1470 1469 1468 1467
1472 1473 1474 1475 1476 1476 1477 1478 1479 1479 1479 1480 1480 1480 1480 1481 1482 1482 1482 1482 1482 1481 1481 1481 1480 1480 1479 1479 1479 1478 1477 1476 1475 1474 1473 1472 1471 1471 1470 1469 1468 1467 1466 1465
1472 1473 1474 1474 1475 1476 1476 1477 1478 1478 1478 1478 1478 1478 1479 1479 1480 1480 1480 1480 1480 1480 1479 1479 1478 1478 1477 1477 1476 1476 1475 1474 1473 1472 1472 1471 1470 1469 1468 1467 1466 1465 1464 1463
1472 1473 1473 1474 1474 1475 1475 1476 1476 1477 1477 1477 1477 1478 1478 1478 1479 1478 1478 1478 1478 1478 1477 1477 1476 1476 1475 1475 1475 1474 1473 1472 1471 1470 1469 1469 1468 1467 1466 1465 1464 1463 1462 1460
1472 1472 1473 1473 1474 1474 1475 1475 1475 1475 1476 1476 1477 1477 1477 1478 1478 1477 1477 1477 1476 1476 1476 1475 1474 1474 1474 1473 1473 1472 1472 1470 1469 1469 1468 1467 1466 1465 1464 1463 1462 1461 1459 1458
1472 1472 1472 1473 1473 1474 1474 1474 1474 1474 1474 1475 1475 1476 1476 1476 1476 1476 1476 1475 1475 1474 1474 1474 1473 1473 1472 1472 1471 1471 1470 1469 1468 1467 1466 1465 1464 1463 1462 1461 1459 1458 1456 1455